风云三号D星 (FENGYUN 3D)

导读

FENGYUN 3D(风云三号D星)是中国于2017年11月14日发射的第二代极轨气象卫星第四颗业务星,运行于太阳同步轨道。它搭载10台先进遥感仪器,含4台首次上星载荷,具备全球多光谱三维定量探测能力。其与风云三号C星组网观测,数据广泛服务于数值预报、气候变化监测、防灾减灾等领域,已为全球超130个国家提供高质量观测数据,是中国气象服务全球的“太空前哨”。

基本信息
目录编号:
43010
目录名称:
FENGYUN 3D
国际标识:
2017-072A
轨道中心:
EARTH
卫星名称:
风云三号D星
卫星全名:
风云三号D星 (FENGYUN 3D)
卫星状态:
在轨 (已飞行3177 天)
发射日期:
2017-11-14 UTC
国别 :
中国 (CN)
星等 :
--
轨道信息
数据来源 国际轨道数据 AOE轨道数据
星历时间 2026-07-27T22:23:41+0800
7小时前
查看轨道信息
2026-07-25T14:00:00+0800
2天前
查看轨道信息
半长轴 7204.35km 7204.343km
偏心率 0.0000842 0.0001074
轨道倾角 99.015° 99.017°
近地点辐角 345.485° 9.883°
升交点赤经 183.758° 181.366°
平近点角 14.631° 227.022°
近地点 825.606km 825.432km
远地点 826.82km 826.98km
周期 101.427分钟 101.426分钟
每日圈数 14.197459 14.19748
详细信息
平衡模式:
三轴稳定
覆盖范围:
亚洲
运营商:
夏威夷科学技术博物馆
运营商所在国:
美国
制造商(研发单位):
上海航天技术研究院
制造商所在国:
中国
使用方式:
暂无
卫星简介
风云气象卫星系列(FENGYUN Meteorological Satellite)是中国于1977年开始研制的气象卫星系列,目前发射了风云一号、风云二号、风云三号、风云四号等卫星系列。其中,风云二号系列、风云四号系列为风云静止卫星,风云一号系列、风云三号系列为风云极轨卫星。该卫星仍在工作。
2D轨道图
3D轨道图
轨道高度分析图
轨道倾角分析图
轨道综合分析图
查看轨道综合分析图